TimeEST,TemperatureF,Dew PointF,Humidity,Sea Level PressureIn,VisibilityMPH,Wind Direction,Wind SpeedMPH,Gust SpeedMPH,PrecipitationIn,Events,Conditions,WindDirDegrees,DateUTC
12:02 AM,32.0,19.4,60,30.09,10.0,Calm,Calm,-,N/A,,Clear,0,2013-03-05 05:02:00
12:22 AM,32.0,19.4,60,30.09,10.0,Calm,Calm,-,N/A,,Clear,0,2013-03-05 05:22:00
12:42 AM,32.0,19.4,60,30.09,10.0,Calm,Calm,-,N/A,,Clear,0,2013-03-05 05:42:00
1:02 AM,30.2,21.2,69,30.09,10.0,North,3.5,-,N/A,,Clear,350,2013-03-05 06:02:00
1:22 AM,28.4,21.2,74,30.09,10.0,North,3.5,-,N/A,,Clear,350,2013-03-05 06:22:00
1:43 AM,28.4,21.2,74,30.10,10.0,NNW,3.5,-,N/A,,Clear,340,2013-03-05 06:43:00
2:03 AM,28.4,21.2,74,30.10,10.0,NNW,3.5,-,N/A,,Clear,340,2013-03-05 07:03:00
2:23 AM,30.2,19.4,64,30.10,10.0,North,3.5,-,N/A,,Clear,360,2013-03-05 07:23:00
2:43 AM,30.2,19.4,64,30.10,10.0,North,4.6,-,N/A,,Clear,360,2013-03-05 07:43:00
3:03 AM,30.2,21.2,69,30.10,10.0,NNE,5.8,-,N/A,,Clear,30,2013-03-05 08:03:00
3:23 AM,30.2,21.2,69,30.09,10.0,North,3.5,-,N/A,,Clear,10,2013-03-05 08:23:00
3:43 AM,30.2,21.2,69,30.09,10.0,Calm,Calm,-,N/A,,Clear,0,2013-03-05 08:43:00
4:03 AM,30.2,21.2,69,30.08,10.0,Calm,Calm,-,N/A,,Clear,0,2013-03-05 09:03:00
4:23 AM,28.4,21.2,74,30.09,10.0,Calm,Calm,-,N/A,,Clear,0,2013-03-05 09:23:00
4:43 AM,28.4,21.2,74,30.09,10.0,Calm,Calm,-,N/A,,Clear,0,2013-03-05 09:43:00
5:03 AM,28.4,21.2,74,30.09,10.0,Calm,Calm,-,N/A,,Clear,0,2013-03-05 10:03:00
5:23 AM,28.4,21.2,74,30.10,10.0,Calm,Calm,-,N/A,,Clear,0,2013-03-05 10:23:00
5:43 AM,28.4,21.2,74,30.09,10.0,Calm,Calm,-,N/A,,Scattered Clouds,0,2013-03-05 10:43:00
6:03 AM,26.6,21.2,80,30.09,10.0,Calm,Calm,-,N/A,,Mostly Cloudy,0,2013-03-05 11:03:00
6:23 AM,28.4,23.0,80,30.09,10.0,Calm,Calm,-,N/A,,Overcast,0,2013-03-05 11:23:00
6:43 AM,28.4,23.0,80,30.09,10.0,Calm,Calm,-,N/A,,Overcast,0,2013-03-05 11:43:00
7:03 AM,28.4,23.0,80,30.10,10.0,Calm,Calm,-,N/A,,Scattered Clouds,0,2013-03-05 12:03:00
7:23 AM,26.6,23.0,86,30.10,7.0,Calm,Calm,-,N/A,,Clear,0,2013-03-05 12:23:00
7:43 AM,28.4,23.0,80,30.10,7.0,Calm,Calm,-,N/A,,Clear,0,2013-03-05 12:43:00
8:03 AM,30.2,24.8,80,30.09,10.0,NW,4.6,-,N/A,,Clear,320,2013-03-05 13:03:00
8:23 AM,32.0,24.8,75,30.10,10.0,SE,5.8,-,N/A,,Clear,130,2013-03-05 13:23:00
8:43 AM,32.0,24.8,75,30.09,10.0,Calm,Calm,-,N/A,,Clear,0,2013-03-05 13:43:00
9:03 AM,33.8,23.0,65,30.08,10.0,Calm,Calm,-,N/A,,Clear,0,2013-03-05 14:03:00
9:23 AM,35.6,23.0,60,30.08,10.0,Calm,Calm,-,N/A,,Clear,0,2013-03-05 14:23:00
9:43 AM,35.6,21.2,56,30.07,10.0,Calm,Calm,-,N/A,,Clear,0,2013-03-05 14:43:00
10:03 AM,37.4,23.0,56,30.07,10.0,Calm,Calm,-,N/A,,Clear,0,2013-03-05 15:03:00
10:24 AM,37.4,21.2,52,30.05,10.0,Calm,Calm,-,N/A,,Clear,0,2013-03-05 15:24:00
10:44 AM,39.2,21.2,49,30.05,10.0,Calm,Calm,-,N/A,,Clear,0,2013-03-05 15:44:00
11:04 AM,41.0,21.2,45,30.05,10.0,SSW,3.5,-,N/A,,Clear,200,2013-03-05 16:04:00
11:24 AM,41.0,19.4,42,30.04,10.0,Calm,Calm,-,N/A,,Clear,0,2013-03-05 16:24:00
11:44 AM,42.8,21.2,42,30.04,10.0,Calm,Calm,-,N/A,,Scattered Clouds,0,2013-03-05 16:44:00
12:04 PM,42.8,21.2,42,30.02,10.0,Calm,Calm,-,N/A,,Scattered Clouds,0,2013-03-05 17:04:00
12:24 PM,44.6,19.4,37,30.01,10.0,Calm,Calm,-,N/A,,Scattered Clouds,0,2013-03-05 17:24:00
12:44 PM,44.6,19.4,37,29.99,10.0,Calm,Calm,-,N/A,,Scattered Clouds,0,2013-03-05 17:44:00
1:04 PM,44.6,19.4,37,29.99,10.0,Calm,Calm,-,N/A,,Clear,0,2013-03-05 18:04:00
1:24 PM,46.4,19.4,34,29.97,10.0,Calm,Calm,-,N/A,,Clear,0,2013-03-05 18:24:00
1:44 PM,46.4,19.4,34,29.95,10.0,Calm,Calm,-,N/A,,Clear,0,2013-03-05 18:44:00
2:04 PM,48.2,19.4,32,29.94,10.0,Calm,Calm,-,N/A,,Clear,0,2013-03-05 19:04:00
2:24 PM,50.0,19.4,30,29.92,10.0,SE,4.6,-,N/A,,Clear,140,2013-03-05 19:24:00
2:44 PM,50.0,17.6,28,29.91,10.0,East,4.6,-,N/A,,Clear,80,2013-03-05 19:44:00
3:04 PM,51.8,17.6,26,29.90,10.0,NE,4.6,-,N/A,,Mostly Cloudy,40,2013-03-05 20:04:00
3:24 PM,50.0,15.8,26,29.90,10.0,East,8.1,-,N/A,,Overcast,100,2013-03-05 20:24:00
3:44 PM,50.0,17.6,28,29.90,10.0,ESE,8.1,-,N/A,,Overcast,120,2013-03-05 20:44:00
4:04 PM,48.2,19.4,32,29.90,10.0,ESE,6.9,-,N/A,,Overcast,120,2013-03-05 21:04:00
4:24 PM,48.2,19.4,32,29.90,10.0,East,6.9,-,N/A,,Overcast,100,2013-03-05 21:24:00
4:44 PM,46.4,21.2,37,29.90,10.0,ESE,6.9,-,N/A,,Overcast,120,2013-03-05 21:44:00
5:04 PM,46.4,21.2,37,29.89,10.0,East,9.2,-,N/A,,Overcast,80,2013-03-05 22:04:00
5:24 PM,46.4,21.2,37,29.89,10.0,East,4.6,-,N/A,,Overcast,90,2013-03-05 22:24:00
5:44 PM,44.6,19.4,37,29.88,10.0,ENE,5.8,-,N/A,,Overcast,60,2013-03-05 22:44:00
6:04 PM,44.6,19.4,37,29.88,10.0,East,5.8,-,N/A,,Mostly Cloudy,80,2013-03-05 23:04:00
6:24 PM,44.6,19.4,37,29.87,10.0,East,8.1,-,N/A,,Overcast,80,2013-03-05 23:24:00
6:45 PM,42.8,19.4,39,29.87,10.0,Calm,Calm,-,N/A,,Overcast,0,2013-03-05 23:45:00
7:05 PM,42.8,17.6,36,29.88,10.0,ENE,3.5,-,N/A,,Overcast,70,2013-03-06 00:05:00
7:25 PM,42.8,17.6,36,29.87,10.0,East,9.2,-,N/A,,Overcast,90,2013-03-06 00:25:00
7:45 PM,42.8,15.8,34,29.86,10.0,East,6.9,-,N/A,,Overcast,100,2013-03-06 00:45:00
8:05 PM,42.8,15.8,34,29.85,10.0,East,9.2,-,N/A,,Overcast,80,2013-03-06 01:05:00
8:25 PM,42.8,17.6,36,29.84,10.0,East,6.9,-,N/A,,Overcast,90,2013-03-06 01:25:00
8:45 PM,42.8,17.6,36,29.83,10.0,NE,8.1,-,N/A,,Overcast,50,2013-03-06 01:45:00
9:05 PM,41.0,19.4,42,29.82,10.0,East,8.1,16.1,N/A,,Overcast,90,2013-03-06 02:05:00
9:25 PM,41.0,21.2,45,29.82,10.0,ENE,3.5,-,N/A,,Overcast,60,2013-03-06 02:25:00
9:45 PM,41.0,21.2,45,29.83,10.0,ENE,3.5,-,N/A,,Overcast,70,2013-03-06 02:45:00
10:05 PM,41.0,21.2,45,29.84,10.0,ESE,9.2,-,N/A,,Mostly Cloudy,120,2013-03-06 03:05:00
10:25 PM,39.2,26.6,61,29.84,10.0,East,16.1,23.0,N/A,,Mostly Cloudy,100,2013-03-06 03:25:00
10:45 PM,35.6,32.0,87,29.83,5.0,ESE,10.4,20.7,N/A,,Overcast,110,2013-03-06 03:45:00
11:05 PM,33.8,32.0,93,29.83,3.0,SSE,5.8,-,N/A,,Overcast,150,2013-03-06 04:05:00
11:25 PM,32.0,32.0,100,29.82,2.0,SSE,3.5,-,N/A,,Overcast,150,2013-03-06 04:25:00
11:45 PM,32.0,32.0,100,29.82,1.0,Calm,Calm,-,N/A,,Overcast,0,2013-03-06 04:45:00